W5XO-8 Weather Reports


time (UTC)temp
F
wind
direction
speed
knots
gust
knots
rain 1hr
in
rain 24hr
in
rain mn
in
humidity
%
barometer
mb
20210518203553 74 5 1.7 0.0 0.00 0.00 0.00 84 1005.8
20210518203147 73 330 2.6 0.0 0.00 0.00 0.00 84 1006.3
20210518202600 74 333 1.7 0.0 0.00 0.00 0.00 84 1006.3
20210518202004 73 355 0.9 0.0 0.00 0.00 0.00 84 1006.2
20210518201508 73 326 0.0 0.0 0.00 0.00 0.00 85 1006.2
20210518201025 73 340 1.7 0.0 0.00 0.00 0.00 85 1006.2
20210518200241 74 341 1.7 0.0 0.00 0.00 0.00 84 1005.9
20210518195506 74 13 5.2 0.0 0.00 0.00 0.00 84 1005.9
20210518195025 74 9 5.2 0.0 0.00 0.00 0.00 82 1006.1
20210518194538 75 345 3.5 0.0 0.00 0.00 0.00 83 1006.1
20210518194036 75 328 3.5 0.0 0.00 0.00 0.00 83 1006.1
20210518193530 75 327 3.5 0.0 0.00 0.00 0.00 83 1006.3
20210518193051 76 327 3.5 0.0 0.00 0.00 0.00 84 1006.3
20210518192540 75 282 2.6 0.0 0.00 0.00 0.00 83 1006.3
20210518192046 76 321 0.9 0.0 0.00 0.00 0.00 82 1006.3
20210518191635 77 308 0.9 0.0 0.00 0.00 0.00 80 1006.3
20210518191134 79 305 0.0 0.0 0.00 0.00 0.00 77 1006.3
20210518190609 80 51 0.0 0.0 0.00 0.00 0.00 75 1006.3
20210518190139 81 64 0.0 0.0 0.00 0.00 0.00 74 1006.3
20210518185545 81 152 0.0 0.0 0.00 0.00 0.00 74 1006.3
20210518185115 80 155 0.0 0.0 0.00 0.00 0.00 74 1006.3
20210518184620 80 160 0.0 0.0 0.00 0.00 0.00 75 1006.0
20210518184100 80 232 0.0 0.0 0.00 0.00 0.00 75 1006.0
20210518183017 79 324 0.0 0.0 0.00 0.00 0.00 78 1006.0
20210518182534 79 327 0.0 0.0 0.00 0.00 0.00 78 1006.0
20210518182009 79 53 0.0 0.0 0.00 0.00 0.00 80 1006.4
20210518181510 78 53 0.0 0.0 0.00 0.00 0.00 79 1006.4
20210518181051 78 57 0.0 0.0 0.00 0.00 0.00 81 1006.4
20210518180023 78 79 0.0 0.0 0.00 0.00 0.00 80 1006.7
20210518175517 78 96 0.0 0.0 0.00 0.00 0.00 80 1006.7
20210518175028 78 168 0.0 0.0 0.00 0.00 0.00 80 1006.6
20210518174522 78 164 0.0 0.0 0.00 0.00 0.00 81 1006.6
20210518174041 78 164 0.0 0.0 0.00 0.00 0.00 82 1006.6
20210518173539 78 128 0.0 0.0 0.00 0.00 0.00 82 1005.9
20210518173052 77 153 0.0 0.0 0.00 0.00 0.00 83 1005.9
20210518172605 76 138 0.0 0.0 0.00 0.00 0.00 82 1005.9
20210518172043 76 130 0.9 0.0 0.00 0.00 0.00 81 1005.9
20210518171633 76 130 1.7 0.0 0.00 0.00 0.00 81 1005.9
20210518171102 76 147 1.7 0.0 0.00 0.00 0.00 82 1005.9
20210518170554 76 113 3.5 0.0 0.00 0.00 0.00 81 1005.9
20210518170210 77 136 2.6 0.0 0.00 0.00 0.00 82 1005.8
20210518165558 76 95 1.7 0.0 0.00 0.00 0.00 82 1005.8
20210518165050 76 115 1.7 0.0 0.00 0.00 0.00 83 1005.8
20210518164745 76 132 3.5 0.0 0.00 0.00 0.00 84 1006.3
20210518164100 76 103 3.5 0.0 0.00 0.00 0.00 83 1006.3
20210518163007 75 121 0.0 0.0 0.00 0.00 0.00 82 1006.6
20210518162510 75 134 0.0 0.0 0.00 0.00 0.00 83 1006.6
20210518162019 75 159 0.0 0.0 0.00 0.00 0.00 83 1006.3
20210518161532 75 123 0.0 0.0 0.00 0.00 0.00 82 1006.3
20210518161041 74 89 0.0 0.0 0.00 0.00 0.00 83 1006.3
20210518160509 74 123 0.0 0.0 0.00 0.00 0.00 83 1005.8
20210518160010 74 136 0.9 0.0 0.00 0.00 0.00 84 1005.8
20210518155524 73 95 1.7 0.0 0.00 0.00 0.00 83 1005.8
20210518155029 73 92 4.3 0.0 0.00 0.00 0.00 82 1005.2
20210518154648 73 98 6.1 0.0 0.00 0.00 0.00 83 1005.2
20210518154049 73 88 7.8 0.0 0.00 0.00 0.00 81 1005.2
20210518153544 73 87 8.7 0.0 0.00 0.00 0.00 82 1005.2
20210518153225 73 78 11.3 0.0 0.00 0.00 0.00 82 1004.4
20210518152552 73 79 12.2 0.0 0.00 0.00 0.00 82 1004.4
20210518152059 73 101 8.7 0.0 0.00 0.00 0.00 81 1004.4
20210518151003 72 81 6.1 0.0 0.00 0.00 0.00 83 1004.7
20210518150219 72 57 7.8 0.0 0.00 0.00 0.00 85 1004.9
20210518145644 72 68 9.6 0.0 0.00 0.00 0.00 83 1004.9
20210518145110 72 79 8.7 0.0 0.00 0.00 0.00 83 1004.9
20210518144502 72 86 7.0 0.0 0.00 0.00 0.00 84 1005.2
20210518144008 72 81 6.1 0.0 0.00 0.00 0.00 84 1005.2
20210518143532 72 117 5.2 0.0 0.00 0.00 0.00 84 1005.2
20210518143055 71 100 2.6 0.0 0.00 0.00 0.00 86 1005.2
20210518142529 71 93 2.6 0.0 0.00 0.00 0.00 86 1005.2
20210518142046 70 73 4.3 0.0 0.00 0.00 0.00 86 1005.2
20210518141555 70 113 4.3 0.0 0.00 0.00 0.00 87 1005.4
20210518141045 70 111 4.3 0.0 0.00 0.00 0.00 87 1005.4
20210518140515 70 102 3.5 0.0 0.00 0.00 0.00 86 1005.2
20210518140114 70 83 4.3 0.0 0.00 0.00 0.00 86 1005.2
20210518135541 70 91 3.5 0.0 0.00 0.00 0.00 85 1005.2
20210518135036 70 109 3.5 0.0 0.00 0.00 0.00 86 1005.2
20210518134623 70 98 4.3 0.0 0.00 0.00 0.00 85 1005.0
20210518134108 71 77 4.3 0.0 0.00 0.00 0.00 85 1005.0
20210518133548 70 105 4.3 0.0 0.00 0.00 0.00 86 1005.0
20210518133201 70 60 3.5 0.0 0.00 0.00 0.00 87 1004.5
20210518132554 69 94 3.5 0.0 0.00 0.00 0.00 88 1004.5
20210518132059 69 71 4.3 0.0 0.00 0.00 0.00 88 1004.5
20210518130209 68 34 3.5 0.0 0.00 0.00 0.00 90 1004.8
20210518125551 68 89 3.5 0.0 0.00 0.00 0.00 90 1004.8
20210518125057 67 52 5.2 0.0 0.00 0.00 0.00 91 1004.8
20210518124736 67 61 5.2 0.0 0.00 0.00 0.00 91 1005.2
20210518124006 67 90 3.5 0.0 0.00 0.00 0.00 90 1005.2
20210518123511 67 94 1.7 0.0 0.00 0.00 0.00 91 1005.5
20210518123013 67 92 0.9 0.0 0.00 0.00 0.00 90 1005.5
20210518122538 67 89 0.9 0.0 0.00 0.00 0.00 90 1005.5
20210518122031 67 83 1.7 0.0 0.00 0.00 0.00 91 1005.5
20210518121551 67 84 1.7 0.0 0.00 0.00 0.00 91 1005.5
20210518121100 67 83 0.9 0.0 0.00 0.00 0.00 91 1005.5
20210518120511 67 80 0.9 0.0 0.00 0.00 0.00 91 1005.2
20210518120101 67 76 0.9 0.0 0.00 0.00 0.00 91 1005.2
20210518115529 66 86 0.0 0.0 0.00 0.00 0.00 91 1005.2
20210518115037 66 55 0.0 0.0 0.00 0.00 0.00 91 1005.3
20210518114558 66 76 0.0 0.0 0.00 0.00 0.00 91 1005.3
20210518114039 66 63 0.9 0.0 0.00 0.00 0.00 91 1005.3
20210518113541 66 65 0.0 0.0 0.00 0.00 0.00 90 1005.3
20210518113130 66 72 0.9 0.0 0.00 0.00 0.00 90 1005.3
20210518112553 66 67 1.7 0.0 0.00 0.00 0.00 90 1005.3
20210518112105 66 62 1.7 0.0 0.00 0.00 0.00 90 1005.3
20210518111506 66 84 0.9 0.0 0.00 0.00 0.00 90 1005.6
20210518111007 66 74 0.9 0.0 0.00 0.00 0.00 90 1005.6
20210518110159 66 65 3.5 0.0 0.00 0.00 0.00 90 1005.4
20210518105006 66 63 4.3 0.0 0.00 0.00 0.00 92 1005.7
20210518104510 66 59 3.5 0.0 0.00 0.00 0.00 92 1005.7
20210518104011 66 64 6.1 0.0 0.00 0.00 0.00 93 1005.7
20210518103526 66 64 6.1 0.0 0.00 0.00 0.00 93 1005.9
20210518103102 66 69 7.8 0.0 0.00 0.00 0.00 93 1005.9
20210518102533 66 69 7.0 0.0 0.00 0.00 0.00 93 1005.9
20210518102039 66 61 7.0 0.0 0.00 0.00 0.00 93 1005.9
20210518101547 67 63 7.8 0.0 0.00 0.00 0.00 93 1006.2
20210518101047 67 61 7.0 0.0 0.00 0.00 0.00 93 1006.2
20210518100517 67 60 6.1 0.0 0.00 0.00 0.00 93 1006.5
20210518100145 67 59 7.0 0.0 0.00 0.00 0.00 93 1006.5
20210518095536 67 53 6.1 0.0 0.00 0.00 0.00 93 1006.5
20210518095042 67 36 2.6 0.0 0.00 0.00 0.00 93 1006.5
20210518094557 67 59 0.9 0.0 0.00 0.00 0.00 94 1007.0
20210518094050 67 47 0.9 0.0 0.00 0.00 0.00 94 1007.0
20210518093606 67 73 0.0 0.0 0.00 0.00 0.00 94 1007.0
20210518093156 67 28 0.9 0.0 0.00 0.00 0.00 94 1007.3
20210518092001 67 26 0.9 0.0 0.00 0.00 0.00 95 1007.3
20210518091533 67 50 0.0 0.0 0.00 0.00 0.00 95 1007.3
20210518091011 67 67 0.0 0.0 0.00 0.00 0.00 95 1007.3
20210518085503 66 27 0.9 0.0 0.00 0.00 0.00 96 1006.9
20210518085008 66 23 0.9 0.0 0.00 0.00 0.00 96 1007.2
20210518084547 66 24 0.9 0.0 0.00 0.00 0.00 96 1007.2
20210518084040 66 360 0.0 0.0 0.00 0.00 0.00 96 1007.2
20210518083059 66 27 0.0 0.0 0.00 0.00 0.00 96 1007.3
20210518082537 66 15 0.0 0.0 0.00 0.00 0.00 96 1007.3
20210518082049 66 350 0.0 0.0 0.00 0.00 0.00 96 1007.3
20210518081617 65 350 0.0 0.0 0.00 0.00 0.00 97 1007.5
20210518081106 65 343 0.0 0.0 0.00 0.00 0.00 97 1007.5
20210518080554 65 355 0.0 0.0 0.00 0.00 0.00 97 1007.5
20210518080117 65 355 0.0 0.0 0.00 0.00 0.00 97 1007.3
20210518075543 65 5 0.0 0.0 0.00 0.00 0.00 97 1007.3
20210518075041 65 360 0.9 0.0 0.00 0.00 0.00 97 1007.3
20210518074620 65 346 0.9 0.0 0.00 0.00 0.00 97 1007.4
20210518074049 65 5 0.9 0.0 0.00 0.00 0.00 97 1007.4
20210518073551 64 9 0.0 0.0 0.00 0.00 0.00 97 1007.4
20210518073212 64 30 0.9 0.0 0.00 0.00 0.00 97 1007.8
20210518072614 64 350 2.6 0.0 0.00 0.00 0.00 97 1007.8
20210518072005 64 346 2.6 0.0 0.00 0.00 0.00 97 1006.1
20210518071522 64 332 0.0 0.0 0.00 0.00 0.00 96 1006.1
20210518071021 64 355 0.0 0.0 0.00 0.00 0.00 96 1006.1
20210518070510 64 23 0.0 0.0 0.00 0.00 0.00 96 1005.7
20210518070017 64 38 0.0 0.0 0.00 0.00 0.00 96 1005.7
20210518065521 64 42 0.0 0.0 0.00 0.00 0.00 96 1005.7
20210518065031 64 63 0.0 0.0 0.00 0.00 0.00 96 1005.8
20210518064628 64 52 0.0 0.0 0.00 0.00 0.00 96 1005.8
20210518064044 64 64 0.0 0.0 0.00 0.00 0.00 96 1005.8
20210518063542 64 66 0.0 0.0 0.00 0.00 0.00 95 1005.8
20210518063146 64 80 0.0 0.0 0.00 0.00 0.00 95 1006.0
20210518062547 65 95 0.0 0.0 0.00 0.00 0.00 95 1006.0
20210518062052 65 113 0.0 0.0 0.00 0.00 0.00 95 1006.0
20210518061636 65 113 0.0 0.0 0.00 0.00 0.00 94 1006.1
20210518061002 65 113 0.0 0.0 0.00 0.00 0.00 94 1006.1
20210518060205 66 188 0.0 0.0 0.00 0.00 0.00 94 1006.3
20210518055606 66 188 0.0 0.0 0.00 0.00 0.00 94 1006.3
20210518055112 66 188 0.0 0.0 0.00 0.00 0.00 94 1006.3
20210518054004 66 187 0.0 0.0 0.00 0.00 0.00 94 1005.8
20210518053522 66 190 0.0 0.0 0.00 0.00 0.00 94 1005.7
20210518053031 66 213 0.0 0.0 0.00 0.00 0.00 94 1005.7
20210518052522 65 234 0.0 0.0 0.00 0.00 0.00 94 1005.7
20210518052019 65 194 0.0 0.0 0.00 0.00 0.00 94 1005.8
20210518051623 66 161 0.0 0.0 0.00 0.00 0.00 94 1005.8
20210518051043 65 159 0.0 0.0 0.00 0.00 0.00 94 1005.8
20210518050549 65 163 0.0 0.0 0.00 0.00 0.00 94 1005.8
20210518050051 65 155 0.0 0.0 0.00 0.00 0.00 94 1005.8
20210518045521 66 157 0.0 0.0 0.00 0.00 0.00 94 1005.8
20210518045032 66 150 0.0 0.0 0.00 0.00 0.00 93 1005.7
20210518044549 66 134 0.0 0.0 0.00 0.00 0.00 93 1005.7
20210518044043 66 123 0.0 0.0 0.00 0.00 0.00 93 1005.7
20210518043546 66 126 0.0 0.0 0.00 0.00 0.00 93 1005.7
20210518043209 66 127 0.0 0.0 0.00 0.00 0.00 93 1006.1
20210518042553 66 148 0.0 0.0 0.00 0.00 0.00 93 1006.1
20210518042059 66 198 0.0 0.0 0.00 0.00 0.00 93 1006.1
20210518041504 66 198 0.0 0.0 0.00 0.00 0.00 92 1005.8
20210518041034 66 198 0.0 0.0 0.00 0.00 0.00 92 1005.8
20210518040140 67 198 0.0 0.0 0.00 0.00 0.00 92 1004.9
20210518035559 67 198 0.0 0.0 0.00 0.00 0.00 92 1004.9
20210518035059 67 200 0.0 0.0 0.00 0.00 0.00 92 1004.9
20210518034004 67 200 0.0 0.0 0.00 0.00 0.00 92 1004.8
20210518033508 67 196 0.0 0.0 0.00 0.00 0.00 92 1004.3
20210518033104 67 193 0.0 0.0 0.00 0.00 0.00 92 1004.3
20210518032535 67 189 0.0 0.0 0.00 0.00 0.00 92 1004.3
20210518032037 67 200 0.0 0.0 0.00 0.00 0.00 92 1004.3
20210518031606 67 195 0.0 0.0 0.00 0.00 0.00 92 1004.3
20210518031041 67 190 0.0 0.0 0.00 0.00 0.00 92 1004.3
20210518030601 67 195 0.0 0.0 0.00 0.00 0.00 91 1004.3
20210518030112 67 183 0.0 0.0 0.00 0.00 0.00 92 1004.7
20210518025536 67 175 0.0 0.0 0.00 0.00 0.00 92 1004.7
20210518025041 67 188 0.0 0.0 0.00 0.00 0.00 92 1004.7
20210518024621 68 172 0.0 0.0 0.00 0.00 0.00 92 1003.9
20210518024050 68 161 0.0 0.0 0.00 0.00 0.00 92 1003.9
20210518023543 68 152 0.0 0.0 0.00 0.00 0.00 92 1003.9
20210518023124 68 165 0.0 0.0 0.00 0.00 0.00 92 1004.2
20210518022615 68 157 0.0 0.0 0.00 0.00 0.00 92 1004.2
20210518022058 68 158 0.0 0.0 0.00 0.00 0.00 92 1004.2
20210518021717 68 159 0.0 0.0 0.00 0.00 0.00 91 1004.5
20210518021004 68 142 0.0 0.0 0.00 0.00 0.00 91 1004.5
20210518020120 68 136 0.0 0.0 0.00 0.00 0.00 91 1005.2
20210518015553 69 136 0.0 0.0 0.00 0.00 0.00 91 1005.2
20210518015107 69 144 0.0 0.0 0.00 0.00 0.00 91 1005.2
20210518014007 69 126 0.0 0.0 0.00 0.00 0.00 90 1005.2
20210518013515 69 138 0.0 0.0 0.00 0.00 0.00 90 1005.2
20210518013121 69 135 0.0 0.0 0.00 0.00 0.00 89 1005.2
20210518012523 70 123 0.0 0.0 0.00 0.00 0.00 89 1005.2
20210518012017 70 113 0.0 0.0 0.00 0.00 0.00 88 1005.2
20210518011606 70 134 0.0 0.0 0.00 0.00 0.00 88 1005.2
20210518011044 71 122 0.0 0.0 0.00 0.00 0.00 87 1005.2
20210518010546 71 108 0.0 0.0 0.00 0.00 0.00 87 1005.2
20210518010023 71 104 0.0 0.0 0.00 0.00 0.00 86 1005.2
20210518005517 71 109 0.0 0.0 0.00 0.00 0.00 86 1005.2
20210518005037 72 110 0.9 0.0 0.00 0.00 0.00 86 1005.2
20210518004553 72 114 0.9 0.0 0.00 0.00 0.00 86 1005.2
20210518004052 72 120 0.0 0.0 0.00 0.00 0.00 86 1005.2
20210518003545 72 124 0.0 0.0 0.00 0.00 0.00 86 1005.2
20210518003136 72 121 0.0 0.0 0.00 0.00 0.00 86 1005.2
20210518002557 72 116 0.0 0.0 0.00 0.00 0.00 86 1005.2
20210518002059 73 107 0.0 0.0 0.00 0.00 0.00 86 1005.2
20210518001501 73 108 0.0 0.0 0.00 0.00 0.00 87 1005.3
20210518001016 73 107 0.0 0.0 0.00 0.00 0.00 87 1005.3
20210518000115 72 72 0.0 0.0 0.00 0.00 0.00 87 1005.6
20210517234554 72 74 0.0 0.0 0.00 0.00 0.00 88 1004.9
20210517234045 72 73 0.0 0.0 0.00 0.00 0.00 88 1004.9
20210517233547 72 76 0.0 0.0 0.00 0.00 0.00 88 1004.9
20210517233140 72 20 0.0 0.0 0.00 0.00 0.00 89 1004.7
20210517232601 72 13 0.0 0.0 0.00 0.00 0.00 89 1004.7
20210517232100 72 121 0.0 0.0 0.00 0.00 0.00 89 1004.7
20210517230146 72 119 2.6 0.0 0.00 0.00 0.00 90 1003.2
20210517225559 72 150 1.7 0.0 0.00 0.00 0.00 90 1003.2
20210517225011 72 136 1.7 0.0 0.00 0.00 0.00 90 1002.8
20210517224515 72 128 3.5 0.0 0.00 0.00 0.00 91 1002.8
20210517224030 72 118 4.3 0.0 0.00 0.00 0.00 91 1002.8
20210517223527 72 113 5.2 0.0 0.00 0.00 0.00 91 1002.6
20210517223145 73 124 6.1 0.0 0.00 0.00 0.00 91 1002.6
20210517222535 72 149 6.1 0.0 0.00 0.00 0.00 91 1002.6
20210517222046 73 112 5.2 0.0 0.00 0.00 0.00 91 1002.6
20210517221652 73 109 5.2 0.0 0.00 0.00 0.00 89 1002.0
20210517221105 72 96 7.8 0.0 0.00 0.00 0.00 87 1002.0
20210517220551 72 86 9.6 0.0 0.00 0.00 0.00 87 1002.0
20210517220137 72 103 7.0 0.0 0.00 0.00 0.00 87 1002.2
20210517215535 71 92 5.2 0.0 0.00 0.00 0.00 87 1002.2
20210517215039 71 86 5.2 0.0 0.00 0.00 0.00 88 1002.2
20210517214639 71 101 8.7 0.0 0.00 0.00 0.00 89 1002.0
20210517214047 71 105 8.7 0.0 0.00 0.00 0.00 89 1002.0
20210517213553 71 76 7.0 0.0 0.00 0.00 0.00 89 1002.0
20210517213128 71 93 6.1 0.0 0.00 0.00 0.00 90 1001.6
20210517212002 72 95 0.9 0.0 0.00 0.00 0.00 83 1002.1
20210517211519 72 84 0.9 0.0 0.00 0.00 0.00 82 1002.1
20210517211013 71 47 0.0 0.0 0.00 0.00 0.00 83 1002.1
20210517210001 71 82 6.1 0.0 0.00 0.00 0.00 88 1003.1
20210517205505 70 67 7.8 0.0 0.00 0.00 0.00 90 1003.1
20210517205019 70 61 2.6 0.0 0.00 0.00 0.00 92 1005.5
20210517204557 70 65 0.0 0.0 0.00 0.00 0.00 91 1005.5
20210517204026 71 126 0.0 0.0 0.00 0.00 0.00 90 1005.5